START_TIME,STEP,MOV.,AL01,t_acc.,AL02,t_acc.,E37,t_acc.,H21,t_acc.
1979-07-14 00:00:34.600 ,0,0,0.,24.0,0.,24.0,0.,24.0,0.,24.0
1979-07-14 00:00:58.600 ,1,1,0.,24.0,0.,24.0,0.,24.0,0.,24.0
1979-07-14 00:01:22.600 ,1,0,0.,24.0,1.,24.0,0.,24.0,0.,24.0
1979-07-14 00:01:46.600 ,2,1,0.,24.0,1.,24.0,0.,24.0,0.,24.0
1979-07-14 00:02:10.600 ,2,0,1.,24.0,0.,24.0,0.,24.0,0.,24.0
1979-07-14 00:02:34.600 ,3,1,0.,24.0,0.,24.0,0.,24.0,0.,24.0
1979-07-14 00:02:58.600 ,3,0,1.,24.0,1.,24.0,0.,24.0,0.,24.0
1979-07-14 00:03:22.600 ,4,1,1.,24.0,0.,24.0,0.,24.0,0.,24.0
1979-07-14 00:03:46.600 ,4,0,0.,24.0,0.,24.0,0.,24.0,0.,24.0
1979-07-14 00:04:10.600 ,5,1,0.,24.0,0.,24.0,0.,24.0,0.,24.0
1979-07-14 00:04:34.600 ,5,0,0.,24.0,0.,24.0,0.,24.0,0.,24.0
1979-07-14 00:04:58.600 ,6,1,0.,24.0,1.,24.0,0.,24.0,0.,24.0
1979-07-14 00:05:22.600 ,6,0,0.,24.0,0.,24.0,0.,24.0,0.,24.0
1979-07-14 00:05:46.600 ,7,1,11.,24.0,0.,24.0,0.,24.0,0.,24.0
1979-07-14 00:06:10.600 ,7,0,17.,24.0,0.,24.0,0.,24.0,0.,24.0
1979-07-14 00:06:34.600 ,7,1,34.,24.0,0.,24.0,0.,24.0,0.,24.0
1979-07-14 00:06:58.600 ,7,0,39.,24.0,0.,24.0,0.,24.0,0.,24.0
1979-07-14 00:07:22.600 ,6,1,17.,24.0,0.,24.0,0.,24.0,0.,24.0
1979-07-14 00:07:46.600 ,6,0,0.,24.0,0.,24.0,0.,24.0,0.,24.0
1979-07-14 00:08:10.600 ,5,1,2.,24.0,0.,24.0,0.,24.0,0.,24.0
1979-07-14 00:08:34.600 ,5,0,0.,24.0,0.,24.0,0.,24.0,0.,24.0
1979-07-14 00:08:58.600 ,4,1,0.,24.0,0.,24.0,0.,24.0,0.,24.0
1979-07-14 00:09:22.600 ,4,0,0.,24.0,0.,24.0,0.,24.0,0.,24.0
1979-07-14 00:09:46.600 ,3,1,0.,24.0,0.,24.0,0.,24.0,0.,24.0
1979-07-14 00:10:10.600 ,3,0,1.,24.0,0.,24.0,0.,24.0,0.,24.0
1979-07-14 00:10:34.600 ,2,1,1.,24.0,1.,24.0,0.,24.0,0.,24.0
1979-07-14 00:10:58.600 ,2,0,0.,24.0,1.,24.0,0.,24.0,0.,24.0
1979-07-14 00:11:22.600 ,1,1,1.,24.0,0.,24.0,0.,24.0,0.,24.0
1979-07-14 00:11:46.600 ,1,0,1.,24.0,0.,24.0,0.,24.0,0.,24.0
1979-07-14 00:12:10.600 ,0,1,1.,24.0,0.,24.0,0.,24.0,0.,24.0
1979-07-14 00:12:34.600 ,0,0,1.,24.0,1.,24.0,0.,24.0,0.,24.0
1979-07-14 00:12:58.600 ,0,1,1.,24.0,0.,24.0,0.,24.0,0.,24.0
1979-07-14 00:13:22.600 ,0,0,1.,24.0,0.,24.0,0.,24.0,0.,24.0
1979-07-14 00:13:46.600 ,1,1,1.,24.0,1.,24.0,0.,24.0,0.,24.0
1979-07-14 00:14:10.600 ,1,0,2.,24.0,0.,24.0,0.,24.0,0.,24.0
1979-07-14 00:14:34.600 ,2,1,0.,24.0,1.,24.0,0.,24.0,0.,24.0
1979-07-14 00:14:58.600 ,2,0,1.,24.0,0.,24.0,0.,24.0,0.,24.0
1979-07-14 00:15:22.600 ,3,1,2.,24.0,0.,24.0,0.,24.0,0.,24.0
1979-07-14 00:15:46.600 ,3,0,2.,24.0,1.,24.0,0.,24.0,0.,24.0
1979-07-14 00:16:10.600 ,4,1,0.,24.0,1.,24.0,0.,24.0,0.,24.0
1979-07-14 00:16:34.600 ,4,0,0.,24.0,0.,24.0,0.,24.0,0.,24.0
1979-07-14 00:16:58.600 ,5,1,0.,24.0,1.,24.0,0.,24.0,0.,24.0
1979-07-14 00:17:22.600 ,5,0,4.,24.0,1.,24.0,0.,24.0,0.,24.0
1979-07-14 00:17:46.600 ,6,1,2.,24.0,0.,24.0,0.,24.0,0.,24.0
1979-07-14 00:18:10.600 ,6,0,1.,24.0,0.,24.0,0.,24.0,0.,24.0
1979-07-14 00:18:34.600 ,7,0,12.,24.0,1.,24.0,0.,24.0,0.,24.0
1979-07-14 00:18:58.600 ,7,0,32.,24.0,0.,24.0,0.,24.0,0.,24.0
1979-07-14 00:19:22.600 ,5,1,21.,24.0,0.,24.0,0.,24.0,0.,24.0
1979-07-14 00:19:46.600 ,1,1,1.,24.0,0.,24.0,0.,24.0,0.,24.0
1979-07-14 00:20:10.600 ,2,1,0.,24.0,0.,24.0,0.,24.0,0.,24.0
1979-07-14 00:20:34.600 ,6,1,1.,24.0,1.,24.0,0.,24.0,0.,24.0
1979-07-14 00:20:58.600 ,5,1,15.,24.0,0.,24.0,0.,24.0,0.,24.0
1979-07-14 00:21:22.600 ,1,1,1.,24.0,0.,24.0,0.,24.0,0.,24.0
1979-07-14 00:21:46.600 ,2,1,0.,24.0,1.,24.0,0.,24.0,0.,24.0
1979-07-14 00:22:10.600 ,6,1,0.,24.0,2.,24.0,0.,24.0,0.,24.0
1979-07-14 00:22:34.600 ,5,1,13.,24.0,0.,24.0,0.,24.0,0.,24.0
1979-07-14 00:22:58.600 ,1,1,0.,24.0,1.,24.0,0.,24.0,0.,24.0
1979-07-14 00:23:22.600 ,2,1,0.,24.0,0.,24.0,3.,24.0,0.,24.0
1979-07-14 00:23:46.600 ,6,1,0.,24.0,0.,24.0,5.,24.0,0.,24.0
1979-07-14 00:24:10.600 ,5,1,18.,24.0,0.,24.0,8.,24.0,0.,24.0
1979-07-14 00:24:34.600 ,1,1,0.,24.0,1.,24.0,4.,24.0,0.,24.0
1979-07-14 00:24:58.600 ,2,1,0.,24.0,1.,24.0,6.,24.0,0.,24.0
1979-07-14 00:25:22.600 ,6,1,0.,24.0,0.,24.0,9.,24.0,0.,24.0
1979-07-14 00:25:46.600 ,5,1,16.,24.0,1.,24.0,11.,24.0,0.,24.0
1979-07-14 00:26:10.600 ,1,1,0.,24.0,0.,24.0,6.,24.0,0.,24.0
1979-07-14 00:26:34.600 ,2,1,0.,24.0,0.,24.0,7.,24.0,0.,24.0
1979-07-14 00:26:58.600 ,6,1,0.,24.0,1.,24.0,7.,24.0,0.,24.0
1979-07-14 00:27:22.600 ,5,1,18.,24.0,0.,24.0,8.,24.0,0.,24.0
1979-07-14 00:27:46.600 ,1,1,0.,24.0,0.,24.0,7.,24.0,0.,24.0
1979-07-14 00:28:10.600 ,2,1,1.,24.0,0.,24.0,8.,24.0,0.,24.0
1979-07-14 00:28:34.600 ,6,1,0.,24.0,0.,24.0,9.,24.0,0.,24.0
1979-07-14 00:28:58.600 ,5,1,15.,24.0,0.,24.0,8.,24.0,0.,24.0
1979-07-14 00:29:22.600 ,1,1,1.,24.0,0.,24.0,10.,24.0,0.,24.0
1979-07-14 00:29:46.600 ,0,0,1.,24.0,0.,24.0,6.,24.0,0.,24.0
1979-07-14 00:30:10.600 ,0,0,0.,24.0,0.,24.0,2.,24.0,0.,24.0
1979-07-14 00:30:34.600 ,5,1,11.,24.0,0.,24.0,9.,24.0,0.,24.0
1979-07-14 00:30:58.600 ,5,0,0.,24.0,0.,24.0,6.,24.0,0.,24.0
1979-07-14 00:31:22.600 ,4,1,1.,24.0,0.,24.0,8.,24.0,0.,24.0
1979-07-14 00:31:46.600 ,4,0,0.,24.0,0.,24.0,4.,24.0,0.,24.0
1979-07-14 00:32:10.600 ,3,1,0.,24.0,0.,24.0,4.,24.0,0.,24.0
1979-07-14 00:32:34.600 ,3,0,0.,24.0,1.,24.0,4.,24.0,0.,24.0
1979-07-14 00:32:58.600 ,2,1,0.,24.0,0.,24.0,1.,24.0,0.,24.0
1979-07-14 00:33:22.600 ,2,0,1.,24.0,0.,24.0,4.,24.0,0.,24.0
1979-07-14 00:33:46.600 ,1,1,0.,24.0,0.,24.0,2.,24.0,0.,24.0
1979-07-14 00:34:10.600 ,1,0,0.,24.0,0.,24.0,3.,24.0,0.,24.0
1979-07-14 00:34:34.600 ,0,1,0.,24.0,1.,24.0,12.,24.0,0.,24.0
1979-07-14 00:34:58.600 ,0,0,0.,24.0,1.,24.0,6.,24.0,0.,24.0
1979-07-14 00:35:22.600 ,0,1,1.,24.0,0.,24.0,7.,24.0,0.,24.0
1979-07-14 00:35:46.600 ,0,0,1.,24.0,1.,24.0,7.,24.0,0.,24.0
1979-07-14 00:36:10.600 ,1,1,0.,24.0,0.,24.0,3.,24.0,0.,24.0
1979-07-14 00:36:34.600 ,1,0,1.,24.0,0.,24.0,8.,24.0,0.,24.0
1979-07-14 00:36:58.600 ,2,1,0.,24.0,0.,24.0,4.,24.0,0.,24.0
1979-07-14 00:37:22.600 ,2,0,1.,24.0,0.,24.0,2.,24.0,0.,24.0
1979-07-14 00:37:46.600 ,3,1,0.,24.0,1.,24.0,4.,24.0,0.,24.0
1979-07-14 00:38:10.600 ,3,0,0.,24.0,0.,24.0,6.,24.0,0.,24.0
1979-07-14 00:38:34.600 ,4,1,0.,24.0,0.,24.0,1.,24.0,0.,24.0
1979-07-14 00:38:58.600 ,4,0,1.,24.0,0.,24.0,4.,24.0,0.,24.0
1979-07-14 00:39:22.600 ,5,1,1.,24.0,0.,24.0,8.,24.0,0.,24.0
1979-07-14 00:39:46.600 ,5,0,0.,24.0,1.,24.0,10.,24.0,0.,24.0
1979-07-14 00:40:10.600 ,6,1,3.,24.0,0.,24.0,8.,24.0,0.,24.0
1979-07-14 00:40:34.600 ,6,0,2.,24.0,1.,24.0,7.,24.0,0.,24.0
1979-07-14 00:40:58.600 ,7,1,7.,24.0,0.,24.0,7.,24.0,0.,24.0
1979-07-14 00:41:22.600 ,7,0,35.,24.0,0.,24.0,5.,24.0,0.,24.0
1979-07-14 00:41:46.600 ,7,1,27.,24.0,0.,24.0,9.,24.0,0.,24.0
1979-07-14 00:42:10.600 ,7,0,31.,24.0,0.,24.0,3.,24.0,0.,24.0
1979-07-14 00:42:34.600 ,6,1,28.,24.0,0.,24.0,8.,24.0,0.,24.0
1979-07-14 00:42:58.600 ,6,0,1.,24.0,0.,24.0,5.,24.0,0.,24.0
1979-07-14 00:43:22.600 ,5,1,4.,24.0,0.,24.0,12.,24.0,0.,24.0
1979-07-14 00:43:46.600 ,5,0,7.,24.0,0.,24.0,3.,24.0,0.,24.0
1979-07-14 00:44:10.600 ,4,1,4.,24.0,2.,24.0,7.,24.0,0.,24.0
1979-07-14 00:44:34.600 ,4,0,2.,24.0,0.,24.0,7.,24.0,0.,24.0
1979-07-14 00:44:58.600 ,3,1,2.,24.0,1.,24.0,10.,24.0,0.,24.0
1979-07-14 00:45:22.600 ,3,0,2.,24.0,0.,24.0,6.,24.0,0.,24.0
1979-07-14 00:45:46.600 ,2,1,4.,24.0,0.,24.0,11.,24.0,0.,24.0
1979-07-14 00:46:10.600 ,2,0,3.,24.0,0.,24.0,6.,24.0,0.,24.0
1979-07-14 00:46:34.600 ,1,1,2.,24.0,0.,24.0,9.,24.0,0.,24.0
1979-07-14 00:46:58.600 ,1,0,1.,24.0,0.,24.0,12.,24.0,0.,24.0
1979-07-14 00:47:22.600 ,0,1,0.,24.0,0.,24.0,15.,24.0,0.,24.0
1979-07-14 00:47:46.600 ,0,0,0.,24.0,0.,24.0,10.,24.0,0.,24.0
1979-07-14 00:48:10.600 ,0,1,1.,24.0,0.,24.0,13.,24.0,0.,24.0
1979-07-14 00:48:34.600 ,0,0,0.,24.0,0.,24.0,13.,24.0,0.,24.0
1979-07-14 00:48:58.600 ,1,1,0.,24.0,0.,24.0,5.,24.0,0.,24.0
1979-07-14 00:49:22.600 ,1,0,0.,24.0,0.,24.0,10.,24.0,0.,24.0
1979-07-14 00:49:46.600 ,2,1,2.,24.0,0.,24.0,4.,24.0,0.,24.0
1979-07-14 00:50:10.600 ,2,0,2.,24.0,1.,24.0,6.,24.0,0.,24.0
1979-07-14 00:50:34.600 ,3,1,2.,24.0,2.,24.0,5.,24.0,0.,24.0
1979-07-14 00:50:58.600 ,3,0,4.,24.0,1.,24.0,10.,24.0,0.,24.0
1979-07-14 00:51:22.600 ,4,1,3.,24.0,3.,24.0,7.,24.0,0.,24.0
1979-07-14 00:51:46.600 ,4,0,1.,24.0,0.,24.0,11.,24.0,0.,24.0
1979-07-14 00:52:10.600 ,5,1,1.,24.0,1.,24.0,5.,24.0,0.,24.0
1979-07-14 00:52:34.600 ,5,0,4.,24.0,0.,24.0,11.,24.0,0.,24.0
1979-07-14 00:52:58.600 ,6,1,2.,24.0,1.,24.0,10.,24.0,0.,24.0
1979-07-14 00:53:22.600 ,6,0,1.,24.0,0.,24.0,8.,24.0,0.,24.0
1979-07-14 00:53:46.600 ,7,1,10.,24.0,1.,24.0,4.,24.0,0.,24.0
1979-07-14 00:54:10.600 ,7,0,26.,24.0,1.,24.0,3.,24.0,0.,24.0
1979-07-14 00:54:34.600 ,7,1,31.,24.0,0.,24.0,7.,24.0,0.,24.0
1979-07-14 00:54:58.600 ,7,0,21.,24.0,0.,24.0,10.,24.0,0.,24.0
1979-07-14 00:55:22.600 ,6,1,25.,24.0,0.,24.0,6.,24.0,0.,24.0
1979-07-14 00:55:46.600 ,6,0,3.,24.0,0.,24.0,7.,24.0,0.,24.0
1979-07-14 00:56:10.600 ,5,1,1.,24.0,0.,24.0,9.,24.0,0.,24.0
1979-07-14 00:56:34.600 ,5,0,1.,24.0,1.,24.0,6.,24.0,0.,24.0
1979-07-14 00:56:58.600 ,4,1,1.,24.0,1.,24.0,14.,24.0,0.,24.0
1979-07-14 00:57:22.600 ,4,0,0.,24.0,0.,24.0,5.,24.0,0.,24.0
1979-07-14 00:57:46.600 ,3,1,0.,24.0,1.,24.0,4.,24.0,0.,24.0
1979-07-14 00:58:10.600 ,3,0,0.,24.0,0.,24.0,8.,24.0,0.,24.0
1979-07-14 00:58:34.600 ,2,1,2.,24.0,1.,24.0,2.,24.0,0.,24.0
1979-07-14 00:58:58.600 ,2,0,0.,24.0,1.,24.0,6.,24.0,0.,24.0
1979-07-14 00:59:22.600 ,1,1,0.,24.0,1.,24.0,8.,24.0,0.,24.0
1979-07-14 00:59:46.600 ,1,0,3.,24.0,0.,24.0,6.,24.0,0.,24.0
1979-07-14 01:00:10.600 ,0,1,1.,24.0,0.,24.0,11.,24.0,0.,24.0
1979-07-14 01:00:34.600 ,0,0,0.,24.0,0.,24.0,7.,24.0,0.,24.0
1979-07-14 01:00:58.600 ,0,1,0.,24.0,0.,24.0,6.,24.0,0.,24.0
1979-07-14 01:01:22.600 ,0,0,1.,24.0,0.,24.0,13.,24.0,0.,24.0
1979-07-14 01:01:46.600 ,1,1,0.,24.0,1.,24.0,8.,24.0,0.,24.0
1979-07-14 01:02:10.600 ,1,0,0.,24.0,1.,24.0,6.,24.0,0.,24.0
1979-07-14 01:02:34.600 ,2,1,0.,24.0,0.,24.0,6.,24.0,0.,24.0
1979-07-14 01:02:58.600 ,2,0,0.,24.0,0.,24.0,8.,24.0,0.,24.0
1979-07-14 01:03:22.600 ,3,1,1.,24.0,1.,24.0,4.,24.0,0.,24.0
1979-07-14 01:03:46.600 ,3,0,0.,24.0,0.,24.0,9.,24.0,0.,24.0
1979-07-14 01:04:10.600 ,4,1,0.,24.0,0.,24.0,8.,24.0,0.,24.0
1979-07-14 01:04:34.600 ,4,0,2.,24.0,2.,24.0,14.,24.0,0.,24.0
1979-07-14 01:04:58.600 ,5,1,2.,24.0,0.,24.0,8.,24.0,0.,24.0
1979-07-14 01:05:22.600 ,5,0,2.,24.0,1.,24.0,12.,24.0,0.,24.0
1979-07-14 01:05:46.600 ,6,1,2.,24.0,2.,24.0,5.,24.0,0.,24.0
1979-07-14 01:06:10.600 ,6,0,0.,24.0,0.,24.0,17.,24.0,0.,24.0
1979-07-14 01:06:34.600 ,7,0,10.,24.0,2.,24.0,9.,24.0,0.,24.0
1979-07-14 01:06:58.600 ,7,0,38.,24.0,0.,24.0,9.,24.0,0.,24.0
1979-07-14 01:07:22.600 ,5,1,17.,24.0,1.,24.0,16.,24.0,0.,24.0
1979-07-14 01:07:46.600 ,1,1,2.,24.0,2.,24.0,12.,24.0,0.,24.0
1979-07-14 01:08:10.600 ,2,1,0.,24.0,0.,24.0,8.,24.0,0.,24.0
1979-07-14 01:08:34.600 ,6,1,3.,24.0,0.,24.0,8.,24.0,0.,24.0
1979-07-14 01:08:58.600 ,5,1,16.,24.0,0.,24.0,12.,24.0,0.,24.0
1979-07-14 01:09:22.600 ,1,1,0.,24.0,0.,24.0,4.,24.0,0.,24.0
1979-07-14 01:09:46.600 ,2,1,2.,24.0,0.,24.0,7.,24.0,0.,24.0
1979-07-14 01:10:10.600 ,6,1,2.,24.0,0.,24.0,7.,24.0,0.,24.0
1979-07-14 01:10:34.600 ,5,1,17.,24.0,0.,24.0,14.,24.0,0.,24.0
1979-07-14 01:10:58.600 ,1,1,1.,24.0,0.,24.0,3.,24.0,0.,24.0
1979-07-14 01:11:22.600 ,2,1,1.,24.0,0.,24.0,7.,24.0,0.,24.0
1979-07-14 01:11:46.600 ,6,1,2.,24.0,0.,24.0,9.,24.0,0.,24.0
1979-07-14 01:12:10.600 ,5,1,20.,24.0,0.,24.0,8.,24.0,0.,24.0
1979-07-14 01:12:34.600 ,1,1,0.,24.0,0.,24.0,9.,24.0,0.,24.0
1979-07-14 01:12:58.600 ,2,1,0.,24.0,0.,24.0,9.,24.0,0.,24.0
1979-07-14 01:13:22.600 ,6,1,1.,24.0,0.,24.0,6.,24.0,0.,24.0
1979-07-14 01:13:46.600 ,5,1,24.,24.0,2.,24.0,12.,24.0,0.,24.0
1979-07-14 01:14:10.600 ,1,1,1.,24.0,0.,24.0,6.,24.0,0.,24.0
1979-07-14 01:14:34.600 ,2,1,0.,24.0,0.,24.0,11.,24.0,0.,24.0
1979-07-14 01:14:58.600 ,6,1,2.,24.0,0.,24.0,10.,24.0,0.,24.0
1979-07-14 01:15:22.600 ,5,1,17.,24.0,1.,24.0,5.,24.0,0.,24.0
1979-07-14 01:15:46.600 ,1,1,0.,24.0,0.,24.0,6.,24.0,0.,24.0
1979-07-14 01:16:10.600 ,2,1,2.,24.0,0.,24.0,6.,24.0,0.,24.0
1979-07-14 01:16:34.600 ,6,1,3.,24.0,0.,24.0,4.,24.0,0.,24.0
1979-07-14 01:16:58.600 ,5,1,11.,24.0,0.,24.0,12.,24.0,0.,24.0
1979-07-14 01:17:22.600 ,1,1,1.,24.0,0.,24.0,9.,24.0,0.,24.0
1979-07-14 01:17:46.600 ,0,0,0.,24.0,1.,24.0,9.,24.0,0.,24.0
1979-07-14 01:18:10.600 ,0,0,0.,24.0,1.,24.0,6.,24.0,0.,24.0
1979-07-14 01:18:34.600 ,5,1,15.,24.0,0.,24.0,7.,24.0,0.,24.0
1979-07-14 01:18:58.600 ,5,0,1.,24.0,1.,24.0,9.,24.0,0.,24.0
1979-07-14 01:19:22.600 ,4,1,2.,24.0,0.,24.0,10.,24.0,0.,24.0
1979-07-14 01:19:46.600 ,4,0,1.,24.0,1.,24.0,13.,24.0,0.,24.0
1979-07-14 01:20:10.600 ,3,1,2.,24.0,0.,24.0,11.,24.0,0.,24.0
1979-07-14 01:20:34.600 ,3,0,0.,24.0,1.,24.0,4.,24.0,0.,24.0
1979-07-14 01:20:58.600 ,2,1,2.,24.0,1.,24.0,10.,24.0,0.,24.0
1979-07-14 01:21:22.600 ,2,0,1.,24.0,0.,24.0,7.,24.0,0.,24.0
1979-07-14 01:21:46.600 ,1,1,1.,24.0,0.,24.0,10.,24.0,0.,24.0
1979-07-14 01:22:10.600 ,1,0,0.,24.0,0.,24.0,9.,24.0,0.,24.0
1979-07-14 01:22:34.600 ,0,1,1.,24.0,0.,24.0,9.,24.0,0.,24.0
1979-07-14 01:22:58.600 ,0,0,0.,24.0,0.,24.0,9.,24.0,0.,24.0
1979-07-14 01:23:22.600 ,0,1,2.,24.0,0.,24.0,13.,24.0,0.,24.0
1979-07-14 01:23:46.600 ,0,0,1.,24.0,0.,24.0,15.,24.0,0.,24.0
1979-07-14 01:24:10.600 ,1,1,0.,24.0,1.,24.0,7.,24.0,0.,24.0
1979-07-14 01:24:34.600 ,1,0,3.,24.0,0.,24.0,13.,24.0,0.,24.0
1979-07-14 01:24:58.600 ,2,1,1.,24.0,0.,24.0,9.,24.0,0.,24.0
1979-07-14 01:25:22.600 ,2,0,1.,24.0,1.,24.0,6.,24.0,0.,24.0
1979-07-14 01:25:46.600 ,3,1,0.,24.0,1.,24.0,9.,24.0,0.,24.0
1979-07-14 01:26:10.600 ,3,0,0.,24.0,0.,24.0,6.,24.0,0.,24.0
1979-07-14 01:26:34.600 ,4,1,0.,24.0,0.,24.0,10.,24.0,0.,24.0
1979-07-14 01:26:58.600 ,4,0,0.,24.0,0.,24.0,10.,24.0,0.,24.0
1979-07-14 01:27:22.600 ,5,1,3.,24.0,2.,24.0,12.,24.0,0.,24.0
1979-07-14 01:27:46.600 ,5,0,3.,24.0,1.,24.0,9.,24.0,0.,24.0
1979-07-14 01:28:10.600 ,6,1,4.,24.0,0.,24.0,14.,24.0,0.,24.0
1979-07-14 01:28:10.600 ,6,1,4.,24.0,0.,24.0,14.,24.0,0.,24.0
1979-07-14 01:28:34.600 ,6,0,0.,24.0,0.,24.0,17.,24.0,0.,24.0
1979-07-14 01:28:58.600 ,7,1,9.,24.0,1.,24.0,4.,24.0,0.,24.0
1979-07-14 01:29:22.600 ,7,0,28.,24.0,0.,24.0,11.,24.0,0.,24.0
1979-07-14 01:30:10.600 ,7,0,41.,24.0,0.,24.0,9.,24.0,0.,24.0
1979-07-14 01:30:34.600 ,6,1,23.,24.0,0.,24.0,7.,24.0,0.,24.0
1979-07-14 01:30:58.600 ,6,0,0.,24.0,1.,24.0,17.,24.0,0.,24.0
1979-07-14 01:31:22.600 ,5,1,3.,24.0,2.,24.0,10.,24.0,0.,24.0
1979-07-14 01:31:46.600 ,5,0,11.,24.0,0.,24.0,14.,24.0,0.,24.0
1979-07-14 01:32:10.600 ,4,1,4.,24.0,0.,24.0,7.,24.0,0.,24.0
1979-07-14 01:32:34.600 ,4,0,1.,24.0,0.,24.0,14.,24.0,0.,24.0
1979-07-14 01:32:58.600 ,3,1,0.,24.0,1.,24.0,12.,24.0,0.,24.0
1979-07-14 01:33:22.600 ,3,0,1.,24.0,0.,24.0,14.,24.0,0.,24.0
1979-07-14 01:33:46.600 ,2,1,1.,24.0,1.,24.0,3.,24.0,0.,24.0
1979-07-14 01:34:10.600 ,2,0,4.,24.0,0.,24.0,10.,24.0,0.,24.0
1979-07-14 01:34:34.600 ,1,1,7.,24.0,2.,24.0,5.,24.0,0.,24.0
1979-07-14 01:34:58.600 ,1,0,1.,24.0,0.,24.0,7.,24.0,0.,24.0
1979-07-14 01:35:22.600 ,0,1,2.,24.0,0.,24.0,10.,24.0,0.,24.0
1979-07-14 01:35:46.600 ,0,0,0.,24.0,0.,24.0,11.,24.0,0.,24.0
1979-07-14 01:36:10.600 ,0,1,1.,24.0,0.,24.0,8.,24.0,0.,24.0
1979-07-14 01:36:34.600 ,0,0,0.,24.0,0.,24.0,7.,24.0,0.,24.0
1979-07-14 01:36:58.600 ,1,1,0.,24.0,0.,24.0,11.,24.0,0.,24.0
1979-07-14 01:37:22.600 ,1,0,0.,24.0,0.,24.0,9.,24.0,0.,24.0
1979-07-14 01:37:46.600 ,2,1,0.,24.0,0.,24.0,11.,24.0,0.,24.0
1979-07-14 01:38:10.600 ,2,0,4.,24.0,1.,24.0,13.,24.0,0.,24.0
1979-07-14 01:38:34.600 ,3,1,2.,24.0,1.,24.0,7.,24.0,0.,24.0
1979-07-14 01:38:58.600 ,3,0,1.,24.0,0.,24.0,7.,24.0,0.,24.0
1979-07-14 01:39:22.600 ,4,1,0.,24.0,1.,24.0,4.,24.0,0.,24.0
1979-07-14 01:39:46.600 ,4,0,1.,24.0,0.,24.0,6.,24.0,0.,24.0
1979-07-14 01:40:10.600 ,5,1,1.,24.0,0.,24.0,12.,24.0,0.,24.0
1979-07-14 01:40:34.600 ,5,0,3.,24.0,2.,24.0,8.,24.0,0.,24.0
1979-07-14 01:40:58.600 ,6,1,10.,24.0,1.,24.0,9.,24.0,0.,24.0
1979-07-14 01:41:22.600 ,6,0,4.,24.0,0.,24.0,8.,24.0,0.,24.0
1979-07-14 01:41:46.600 ,7,1,4.,24.0,1.,24.0,6.,24.0,0.,24.0
1979-07-14 01:42:10.600 ,7,0,22.,24.0,0.,24.0,9.,24.0,0.,24.0
1979-07-14 01:42:34.600 ,7,1,27.,24.0,0.,24.0,14.,24.0,0.,24.0
1979-07-14 01:42:58.600 ,0,0,,0,,0,,0,,0
1979-07-14 01:42:59.200 ,0,0,41.,24.0,0.,24.0,7.,24.0,0.,24.0
1979-07-14 01:43:22.600 ,6,1,22.,24.0,1.,24.0,8.,24.0,0.,24.0
1979-07-14 01:43:46.600 ,6,0,3.,24.0,2.,24.0,7.,24.0,0.,24.0
1979-07-14 01:44:10.600 ,5,1,2.,24.0,0.,24.0,12.,24.0,0.,24.0
1979-07-14 01:44:34.600 ,5,0,7.,24.0,1.,24.0,16.,24.0,0.,24.0
1979-07-14 01:44:58.600 ,4,1,3.,24.0,1.,24.0,9.,24.0,0.,24.0
1979-07-14 01:45:22.600 ,4,0,2.,24.0,0.,24.0,9.,24.0,0.,24.0
1979-07-14 01:45:46.600 ,3,1,3.,24.0,1.,24.0,11.,24.0,0.,24.0
1979-07-14 01:46:10.600 ,3,0,1.,24.0,0.,24.0,3.,24.0,0.,24.0
1979-07-14 01:46:34.600 ,2,1,1.,24.0,0.,24.0,7.,24.0,0.,24.0
1979-07-14 01:46:58.600 ,2,0,2.,24.0,0.,24.0,6.,24.0,0.,24.0
1979-07-14 01:47:22.600 ,1,1,3.,24.0,0.,24.0,8.,24.0,0.,24.0
1979-07-14 01:47:46.600 ,1,0,0.,24.0,1.,24.0,7.,24.0,0.,24.0
1979-07-14 01:48:10.600 ,0,1,0.,24.0,0.,24.0,11.,24.0,0.,24.0
1979-07-14 01:48:34.600 ,0,0,0.,24.0,0.,24.0,8.,24.0,0.,24.0
1979-07-14 01:48:58.600 ,0,1,0.,24.0,0.,24.0,8.,24.0,0.,24.0
1979-07-14 01:49:22.600 ,0,0,1.,24.0,0.,24.0,7.,24.0,0.,24.0
1979-07-14 01:49:46.600 ,1,1,1.,24.0,0.,24.0,7.,24.0,0.,24.0
1979-07-14 01:50:10.600 ,1,0,0.,24.0,0.,24.0,7.,24.0,0.,24.0
1979-07-14 01:50:34.600 ,2,1,0.,24.0,0.,24.0,5.,24.0,0.,24.0
1979-07-14 01:50:58.600 ,2,0,2.,24.0,0.,24.0,5.,24.0,0.,24.0
1979-07-14 01:51:22.600 ,3,1,0.,24.0,0.,24.0,7.,24.0,0.,24.0
1979-07-14 01:51:46.600 ,3,0,1.,24.0,0.,24.0,7.,24.0,0.,24.0
1979-07-14 01:52:10.600 ,4,1,0.,24.0,0.,24.0,2.,24.0,0.,24.0
1979-07-14 01:52:34.600 ,4,0,1.,24.0,1.,24.0,4.,24.0,0.,24.0
1979-07-14 01:52:58.600 ,5,1,0.,24.0,0.,24.0,9.,24.0,0.,24.0
1979-07-14 01:53:22.600 ,5,0,2.,24.0,0.,24.0,5.,24.0,0.,24.0
1979-07-14 01:53:46.600 ,6,1,3.,24.0,0.,24.0,8.,24.0,0.,24.0
1979-07-14 01:54:10.600 ,6,0,1.,24.0,0.,24.0,7.,24.0,0.,24.0
1979-07-14 01:54:34.600 ,7,0,7.,24.0,0.,24.0,8.,24.0,0.,24.0
1979-07-14 01:54:58.600 ,7,0,33.,24.0,0.,24.0,12.,24.0,0.,24.0
1979-07-14 01:55:22.600 ,5,1,19.,24.0,1.,24.0,13.,24.0,0.,24.0
1979-07-14 01:55:46.600 ,1,1,1.,24.0,0.,24.0,9.,24.0,0.,24.0
1979-07-14 01:56:10.600 ,2,1,0.,24.0,0.,24.0,4.,24.0,0.,24.0
1979-07-14 01:56:34.600 ,6,1,2.,24.0,2.,24.0,6.,24.0,0.,24.0
1979-07-14 01:56:58.600 ,5,1,20.,24.0,1.,24.0,10.,24.0,0.,24.0
1979-07-14 01:57:22.600 ,1,1,1.,24.0,0.,24.0,7.,24.0,0.,24.0
1979-07-14 01:57:46.600 ,2,1,0.,24.0,0.,24.0,7.,24.0,0.,24.0
1979-07-14 01:58:10.600 ,6,1,2.,24.0,1.,24.0,8.,24.0,0.,24.0
1979-07-14 01:58:34.600 ,5,1,8.,24.0,0.,24.0,8.,24.0,0.,24.0
1979-07-14 01:58:58.600 ,1,1,0.,24.0,0.,24.0,3.,24.0,0.,24.0
1979-07-14 01:59:22.600 ,2,1,0.,24.0,0.,24.0,14.,24.0,0.,24.0
1979-07-14 01:59:46.600 ,6,1,3.,24.0,0.,24.0,8.,24.0,0.,24.0
1979-07-14 02:00:10.600 ,5,1,26.,24.0,0.,24.0,10.,24.0,0.,24.0
1979-07-14 02:00:34.600 ,1,1,0.,24.0,0.,24.0,5.,24.0,0.,24.0
1979-07-14 02:00:58.600 ,2,1,0.,24.0,0.,24.0,9.,24.0,0.,24.0
1979-07-14 02:01:22.600 ,6,1,0.,24.0,1.,24.0,5.,24.0,0.,24.0
1979-07-14 02:01:46.600 ,5,1,19.,24.0,0.,24.0,9.,24.0,0.,24.0
1979-07-14 02:02:10.600 ,1,1,1.,24.0,0.,24.0,5.,24.0,0.,24.0
1979-07-14 02:02:34.600 ,2,1,0.,24.0,1.,24.0,9.,24.0,0.,24.0
1979-07-14 02:02:58.600 ,6,1,0.,24.0,2.,24.0,7.,24.0,0.,24.0
1979-07-14 02:03:22.600 ,5,1,13.,24.0,0.,24.0,9.,24.0,0.,24.0
1979-07-14 02:03:46.600 ,1,1,2.,24.0,1.,24.0,4.,24.0,0.,24.0
1979-07-14 02:04:10.600 ,2,1,1.,24.0,0.,24.0,14.,24.0,0.,24.0
1979-07-14 02:04:34.600 ,6,1,0.,24.0,0.,24.0,4.,24.0,0.,24.0
1979-07-14 02:04:58.600 ,5,1,8.,24.0,0.,24.0,9.,24.0,0.,24.0
1979-07-14 02:05:22.600 ,1,1,0.,24.0,0.,24.0,8.,24.0,0.,24.0
1979-07-14 02:05:46.600 ,0,0,0.,24.0,0.,24.0,7.,24.0,0.,24.0
1979-07-14 02:06:10.600 ,0,0,0.,24.0,0.,24.0,6.,24.0,0.,24.0
1979-07-14 02:06:34.600 ,5,1,16.,24.0,1.,24.0,6.,24.0,0.,24.0
1979-07-14 02:06:58.600 ,5,0,4.,24.0,1.,24.0,11.,24.0,0.,24.0
1979-07-14 02:07:22.600 ,4,1,1.,24.0,0.,24.0,10.,24.0,0.,24.0
1979-07-14 02:07:46.600 ,4,0,2.,24.0,0.,24.0,6.,24.0,0.,24.0
1979-07-14 02:08:10.600 ,3,1,0.,24.0,0.,24.0,5.,24.0,0.,24.0
1979-07-14 02:08:34.600 ,3,0,0.,24.0,0.,24.0,2.,24.0,0.,24.0
1979-07-14 02:08:58.600 ,2,1,1.,24.0,0.,24.0,7.,24.0,0.,24.0
1979-07-14 02:09:22.600 ,2,0,1.,24.0,1.,24.0,15.,24.0,0.,24.0
1979-07-14 02:09:46.600 ,1,1,1.,24.0,0.,24.0,5.,24.0,0.,24.0
1979-07-14 02:10:10.600 ,1,0,0.,24.0,1.,24.0,8.,24.0,0.,24.0
1979-07-14 02:10:34.600 ,0,1,0.,24.0,0.,24.0,10.,24.0,0.,24.0
1979-07-14 02:10:58.600 ,0,0,0.,24.0,1.,24.0,13.,24.0,0.,24.0
1979-07-14 02:11:22.600 ,0,1,0.,24.0,0.,24.0,11.,24.0,0.,24.0
1979-07-14 02:11:46.600 ,0,0,0.,24.0,0.,24.0,7.,24.0,0.,24.0
1979-07-14 02:12:10.600 ,1,1,0.,24.0,0.,24.0,8.,24.0,0.,24.0
1979-07-14 02:12:34.600 ,1,0,0.,24.0,0.,24.0,3.,24.0,0.,24.0
1979-07-14 02:12:58.600 ,2,1,1.,24.0,0.,24.0,11.,24.0,0.,24.0
1979-07-14 02:13:22.600 ,2,0,1.,24.0,0.,24.0,3.,24.0,0.,24.0
1979-07-14 02:13:46.600 ,3,1,0.,24.0,0.,24.0,5.,24.0,0.,24.0
1979-07-14 02:14:10.600 ,3,0,0.,24.0,0.,24.0,6.,24.0,0.,24.0
1979-07-14 02:14:34.600 ,4,1,1.,24.0,0.,24.0,9.,24.0,0.,24.0
1979-07-14 02:14:58.600 ,4,0,0.,24.0,2.,24.0,8.,24.0,0.,24.0
1979-07-14 02:15:22.600 ,5,1,0.,24.0,0.,24.0,8.,24.0,0.,24.0
1979-07-14 02:15:46.600 ,5,0,0.,24.0,1.,24.0,7.,24.0,0.,24.0
1979-07-14 02:16:10.600 ,6,1,0.,24.0,0.,24.0,9.,24.0,0.,24.0
1979-07-14 02:16:34.600 ,6,0,0.,24.0,0.,24.0,3.,24.0,0.,24.0
1979-07-14 02:16:58.600 ,7,1,9.,24.0,0.,24.0,6.,24.0,0.,24.0
1979-07-14 02:17:22.600 ,7,0,43.,24.0,0.,24.0,3.,24.0,0.,24.0
1979-07-14 02:17:46.600 ,7,1,27.,24.0,0.,24.0,4.,24.0,0.,24.0
1979-07-14 02:18:10.600 ,7,0,26.,24.0,0.,24.0,5.,24.0,0.,24.0
1979-07-14 02:18:34.600 ,6,1,24.,24.0,0.,24.0,5.,24.0,0.,24.0
1979-07-14 02:18:58.600 ,6,0,0.,24.0,1.,24.0,7.,24.0,0.,24.0
1979-07-14 02:19:22.600 ,5,1,1.,24.0,0.,24.0,5.,24.0,0.,24.0
1979-07-14 02:19:46.600 ,5,0,0.,24.0,0.,24.0,5.,24.0,0.,24.0
1979-07-14 02:20:10.600 ,4,1,0.,24.0,0.,24.0,3.,24.0,0.,24.0
1979-07-14 02:20:34.600 ,4,0,0.,24.0,0.,24.0,5.,24.0,0.,24.0
1979-07-14 02:20:58.600 ,3,1,1.,24.0,0.,24.0,11.,24.0,0.,24.0
1979-07-14 02:21:22.600 ,3,0,1.,24.0,0.,24.0,6.,24.0,0.,24.0
1979-07-14 02:22:34.600 ,0,0,0.,24.0,1.,24.0,4.,24.0,0.,24.0
1979-07-14 02:22:58.600 ,0,0,1.,24.0,0.,24.0,9.,24.0,0.,24.0
1979-07-14 02:23:22.600 ,0,1,0.,24.0,1.,24.0,5.,24.0,0.,24.0
1979-07-14 02:23:46.600 ,0,0,0.,24.0,0.,24.0,12.,24.0,0.,24.0
1979-07-14 02:24:10.600 ,0,1,0.,24.0,1.,24.0,13.,24.0,0.,24.0
1979-07-14 02:24:34.600 ,0,0,0.,24.0,0.,24.0,5.,24.0,0.,24.0
1979-07-14 02:24:58.600 ,1,1,0.,24.0,0.,24.0,9.,24.0,0.,24.0
1979-07-14 02:25:22.600 ,1,0,0.,24.0,0.,24.0,6.,24.0,0.,24.0
1979-07-14 02:25:46.600 ,2,1,0.,24.0,0.,24.0,5.,24.0,0.,24.0
1979-07-14 02:26:10.600 ,2,0,1.,24.0,1.,24.0,10.,24.0,0.,24.0
1979-07-14 02:26:34.600 ,3,1,1.,24.0,0.,24.0,11.,24.0,0.,24.0
1979-07-14 02:26:58.600 ,3,0,2.,24.0,2.,24.0,5.,24.0,0.,24.0
1979-07-14 02:27:22.600 ,4,1,0.,24.0,0.,24.0,10.,24.0,0.,24.0
1979-07-14 02:27:46.600 ,4,0,0.,24.0,0.,24.0,9.,24.0,0.,24.0
1979-07-14 02:28:10.600 ,5,1,0.,24.0,0.,24.0,7.,24.0,0.,24.0
1979-07-14 02:28:34.600 ,5,0,2.,24.0,1.,24.0,13.,24.0,0.,24.0
1979-07-14 02:28:58.600 ,6,1,0.,24.0,0.,24.0,8.,24.0,0.,24.0
1979-07-14 02:29:22.600 ,6,0,0.,24.0,0.,24.0,10.,24.0,0.,24.0
1979-07-14 02:29:46.600 ,7,1,11.,24.0,0.,24.0,19.,24.0,0.,24.0
1979-07-14 02:30:10.600 ,7,0,29.,24.0,0.,24.0,6.,24.0,0.,24.0
1979-07-14 02:30:34.600 ,7,1,32.,24.0,0.,24.0,6.,24.0,0.,24.0
1979-07-14 02:30:58.600 ,7,0,22.,24.0,0.,24.0,10.,24.0,0.,24.0
1979-07-14 02:31:22.600 ,6,1,16.,24.0,0.,24.0,15.,24.0,0.,24.0
1979-07-14 02:31:46.600 ,6,0,2.,24.0,0.,24.0,14.,24.0,0.,24.0
1979-07-14 02:32:10.600 ,5,1,0.,24.0,0.,24.0,11.,24.0,0.,24.0
1979-07-14 02:32:34.600 ,5,0,4.,24.0,0.,24.0,8.,24.0,0.,24.0
1979-07-14 02:32:58.600 ,4,1,1.,24.0,0.,24.0,4.,24.0,0.,24.0
1979-07-14 02:33:22.600 ,4,0,1.,24.0,0.,24.0,8.,24.0,0.,24.0
1979-07-14 02:33:46.600 ,3,1,0.,24.0,1.,24.0,13.,24.0,0.,24.0